Zurück zum Katalog

KUIPER-00616

AktivKommunikationVLEO
NORAD 69775·PAYLOAD·🇺🇸 United States

Gestartet Jul 2, 2026 von Cape Canaveral Space Force Station

Loading…

Nächste Überflüge (nächste 24 Stunden)

TLE

AktuellSource: CelesTrak SupGP

Epoche: Sep 14, 2026, 17:01 UTC

1 69775C 26151N   26257.70945602 -.00961590  00000+0 -82193-1 0  2576
2 69775  51.8958 245.5069 0003271 116.0835 167.6808 14.98101618    16

Verfolge KUIPER-00616 in Echtzeit mit AllMySat

Download on the App Store